This is the latest recevied weather packets stored in our database for station/object KD7CTY. If no packets are shown the sender has not sent any weather packets the latest 10 day(s).
| Time | Temp. | Humidity | Pressure | Rain* | Wind** | Luminosity | Snow |
|---|---|---|---|---|---|---|---|
| 1788572722 | 17.78° C | 73% | 1014.1 hPa | 0 mm | - | 37 W/m² | - |
| 1788572418 | 17.78° C | 70% | 1014 hPa | 0 mm | - | 40 W/m² | - |
| 1788572114 | 18.33° C | 69% | 1014 hPa | 0 mm | - | 47 W/m² | - |
| 1788571810 | 18.33° C | 68% | 1014 hPa | 0 mm | - | 48 W/m² | - |
| 1788571504 | 18.33° C | 68% | 1014 hPa | 0 mm | - | 56 W/m² | - |
| 1788571201 | 18.33° C | 68% | 1014 hPa | 0 mm | - | 62 W/m² | - |
| 1788570896 | 18.33° C | 68% | 1013.8 hPa | 0 mm | - | 62 W/m² | - |
| 1788570592 | 18.33° C | 68% | 1013.9 hPa | 0 mm | - | 65 W/m² | - |
| 1788570292 | 17.78° C | 70% | 1013.7 hPa | 0 mm | - | 72 W/m² | - |
| 1788569988 | 17.78° C | 71% | 1013.5 hPa | 0 mm | - | 58 W/m² | - |
| 1788569684 | 17.78° C | 70% | 1013.4 hPa | 0 mm | - | 47 W/m² | - |
| 1788569378 | 18.33° C | 69% | 1013.5 hPa | 0 mm | - | 45 W/m² | - |
| 1788569074 | 18.33° C | 67% | 1013.4 hPa | 0 mm | - | 49 W/m² | - |
| 1788568768 | 18.33° C | 67% | 1013.4 hPa | 0 mm | - | 50 W/m² | - |
| 1788568465 | 18.89° C | 65% | 1013 hPa | 0 mm | - | 41 W/m² | - |
| 1788568160 | 18.89° C | 64% | 1013.1 hPa | 0 mm | - | 39 W/m² | - |
| 1788567859 | 18.89° C | 65% | 1013.1 hPa | 0 mm | - | 46 W/m² | - |
| 1788567554 | 18.89° C | 64% | 1013.1 hPa | 0 mm | - | 52 W/m² | - |
| 1788567263 | 18.89° C | 64% | 1013.1 hPa | 0 mm | - | 47 W/m² | - |
| 1788566944 | 19.44° C | 62% | 1013.2 hPa | 0 mm | - | 44 W/m² | - |
| 1788566639 | 20° C | 62% | 1013 hPa | 0 mm | - | 50 W/m² | - |
| 1788566334 | 20° C | 59% | 1013 hPa | 0 mm | - | 47 W/m² | - |
| 1788566030 | 21.11° C | 57% | 1012.9 hPa | 0 mm | - | 71 W/m² | - |
| 1788565730 | 21.11° C | 57% | 1012.9 hPa | 0 mm | - | 403 W/m² | - |
| 1788565425 | 21.11° C | 56% | 1012.9 hPa | 0 mm | - | 412 W/m² | - |
* Rain latest hour (hover to see other rain measurements)
** Current wind speed in m/s (hover to see current wind gust speed)